Year,Month,Day,Hour,Minute,Value (Times are PST for temperature in C)
2018,12,03,00,00,-26.90
2018,12,03,00,01,-26.80
2018,12,03,00,02,-26.70
2018,12,03,00,03,-26.60
2018,12,03,00,04,-26.50
2018,12,03,00,05,-26.40
2018,12,03,00,06,-26.40
2018,12,03,00,07,-26.30
2018,12,03,00,08,-26.20
2018,12,03,00,09,-26.20
2018,12,03,00,10,-26.10
2018,12,03,00,11,-26.00
2018,12,03,00,12,-26.00
2018,12,03,00,13,-26.00
2018,12,03,00,14,-25.90
2018,12,03,00,15,-25.90
2018,12,03,00,16,-25.90
2018,12,03,00,17,-25.90
2018,12,03,00,18,-25.90
2018,12,03,00,19,-25.90
2018,12,03,00,20,-25.90
2018,12,03,00,21,-25.90
2018,12,03,00,22,-25.90
2018,12,03,00,23,-26.00
2018,12,03,00,24,-26.00
2018,12,03,00,25,-26.20
2018,12,03,00,26,-26.20
2018,12,03,00,27,-26.30
2018,12,03,00,28,-26.30
2018,12,03,00,29,-26.40
2018,12,03,00,30,-26.40
2018,12,03,00,31,-26.40
2018,12,03,00,32,-26.40
2018,12,03,00,33,-26.40
2018,12,03,00,34,-26.40
2018,12,03,00,35,-26.50
2018,12,03,00,36,-26.50
2018,12,03,00,37,-26.50
2018,12,03,00,38,-26.50
2018,12,03,00,39,-26.40
2018,12,03,00,40,-26.40
2018,12,03,00,41,-26.40
2018,12,03,00,42,-26.30
2018,12,03,00,43,-26.30
2018,12,03,00,44,-26.20
2018,12,03,00,45,-26.20
2018,12,03,00,46,-26.20
2018,12,03,00,47,-26.10
2018,12,03,00,48,-26.10
2018,12,03,00,49,-26.00
2018,12,03,00,50,-26.00
2018,12,03,00,51,-26.00
2018,12,03,00,52,-25.90
2018,12,03,00,53,-25.90
2018,12,03,00,54,-25.90
2018,12,03,00,55,-25.90
2018,12,03,00,56,-26.00
2018,12,03,00,57,-26.00
2018,12,03,00,58,-26.00
2018,12,03,00,59,-26.00
2018,12,03,01,00,-26.00
2018,12,03,01,01,-26.00
2018,12,03,01,02,-26.00
2018,12,03,01,03,-26.00
2018,12,03,01,04,-26.00
2018,12,03,01,05,-26.00
2018,12,03,01,06,-26.00
2018,12,03,01,07,-26.00
2018,12,03,01,08,-25.90
2018,12,03,01,09,-25.90
2018,12,03,01,10,-25.90
2018,12,03,01,11,-25.90
2018,12,03,01,12,-25.90
2018,12,03,01,13,-25.90
2018,12,03,01,14,-25.90
2018,12,03,01,15,-25.90
2018,12,03,01,16,-25.90
2018,12,03,01,17,-26.00
2018,12,03,01,18,-26.00
2018,12,03,01,19,-26.00
2018,12,03,01,20,-26.10
2018,12,03,01,21,-26.20
2018,12,03,01,22,-26.20
2018,12,03,01,23,-26.20
2018,12,03,01,24,-26.30
2018,12,03,01,25,-26.40
2018,12,03,01,26,-26.40
2018,12,03,01,27,-26.40
2018,12,03,01,28,-26.50
2018,12,03,01,29,-26.50
2018,12,03,01,30,-26.50
2018,12,03,01,31,-26.50
2018,12,03,01,32,-26.60
2018,12,03,01,33,-26.60
2018,12,03,01,34,-26.60
2018,12,03,01,35,-26.60
2018,12,03,01,36,-26.60
2018,12,03,01,37,-26.60
2018,12,03,01,38,-26.60
2018,12,03,01,39,-26.70
2018,12,03,01,40,-26.70
2018,12,03,01,41,-26.70
2018,12,03,01,42,-26.70
2018,12,03,01,43,-26.70
2018,12,03,01,44,-26.70
2018,12,03,01,45,-26.70
2018,12,03,01,46,-26.70
2018,12,03,01,47,-26.60
2018,12,03,01,48,-26.50
2018,12,03,01,49,-26.40
2018,12,03,01,50,-26.40
2018,12,03,01,51,-26.30
2018,12,03,01,52,-26.30
2018,12,03,01,53,-26.20
2018,12,03,01,54,-26.20
2018,12,03,01,55,-26.10
2018,12,03,01,56,-26.00
2018,12,03,01,57,-26.00
2018,12,03,01,58,-26.00
2018,12,03,01,59,-25.90
2018,12,03,02,00,-25.90
2018,12,03,02,01,-25.80
2018,12,03,02,02,-25.80
2018,12,03,02,03,-25.70
2018,12,03,02,04,-25.70
2018,12,03,02,05,-25.60
2018,12,03,02,06,-25.60
2018,12,03,02,07,-25.50
2018,12,03,02,08,-25.60
2018,12,03,02,09,-25.50
2018,12,03,02,10,-25.50
2018,12,03,02,11,-25.60
2018,12,03,02,12,-25.50
2018,12,03,02,13,-25.50
2018,12,03,02,14,-25.40
2018,12,03,02,15,-25.40
2018,12,03,02,16,-25.40
2018,12,03,02,17,-25.40
2018,12,03,02,18,-25.40
2018,12,03,02,19,-25.40
2018,12,03,02,20,-25.40
2018,12,03,02,21,-25.50
2018,12,03,02,22,-25.50
2018,12,03,02,23,-25.50
2018,12,03,02,24,-25.40
2018,12,03,02,25,-25.40
2018,12,03,02,26,-25.40
2018,12,03,02,27,-25.40
2018,12,03,02,28,-25.40
2018,12,03,02,29,-25.40
2018,12,03,02,30,-25.40
2018,12,03,02,31,-25.30
2018,12,03,02,32,-25.30
2018,12,03,02,33,-25.30
2018,12,03,02,34,-25.30
2018,12,03,02,35,-25.30
2018,12,03,02,36,-25.20
2018,12,03,02,37,-25.20
2018,12,03,02,38,-25.30
2018,12,03,02,39,-25.30
2018,12,03,02,40,-25.30
2018,12,03,02,41,-25.40
2018,12,03,02,42,-25.40
2018,12,03,02,43,-25.50
2018,12,03,02,44,-25.50
2018,12,03,02,45,-25.50
2018,12,03,02,46,-25.60
2018,12,03,02,47,-25.60
2018,12,03,02,48,-25.60
2018,12,03,02,49,-25.50
2018,12,03,02,50,-25.50
2018,12,03,02,51,-25.50
2018,12,03,02,52,-25.50
2018,12,03,02,53,-25.50
2018,12,03,02,54,-25.50
2018,12,03,02,55,-25.40
2018,12,03,02,56,-25.40
2018,12,03,02,57,-25.40
2018,12,03,02,58,-25.40
2018,12,03,02,59,-25.40
2018,12,03,03,00,-25.20
2018,12,03,03,01,-25.10
2018,12,03,03,02,-25.10
2018,12,03,03,03,-25.10
2018,12,03,03,04,-25.10
2018,12,03,03,05,-25.10
2018,12,03,03,06,-25.20
2018,12,03,03,07,-25.20
2018,12,03,03,08,-25.30
2018,12,03,03,09,-25.30
2018,12,03,03,10,-25.30
2018,12,03,03,11,-25.40
2018,12,03,03,12,-25.40
2018,12,03,03,13,-25.40
2018,12,03,03,14,-25.40
2018,12,03,03,15,-25.40
2018,12,03,03,16,-25.40
2018,12,03,03,17,-25.40
2018,12,03,03,18,-25.30
2018,12,03,03,19,-25.30
2018,12,03,03,20,-25.20
2018,12,03,03,21,-25.20
2018,12,03,03,22,-25.10
2018,12,03,03,23,-25.10
2018,12,03,03,24,-25.10
2018,12,03,03,25,-25.00
2018,12,03,03,26,-25.00
2018,12,03,03,27,-24.90
2018,12,03,03,28,-24.90
2018,12,03,03,29,-24.90
2018,12,03,03,30,-24.80
2018,12,03,03,31,-24.80
2018,12,03,03,32,-24.80
2018,12,03,03,33,-24.80
2018,12,03,03,34,-24.70
2018,12,03,03,35,-24.70
2018,12,03,03,36,-24.60
2018,12,03,03,37,-24.60
2018,12,03,03,38,-24.60
2018,12,03,03,39,-24.60
2018,12,03,03,40,-24.60
2018,12,03,03,41,-24.50
2018,12,03,03,42,-24.50
2018,12,03,03,43,-24.50
2018,12,03,03,44,-24.50
2018,12,03,03,45,-24.50
2018,12,03,03,46,-24.50
2018,12,03,03,47,-24.50
2018,12,03,03,48,-24.50
2018,12,03,03,49,-24.50
2018,12,03,03,50,-24.50
2018,12,03,03,51,-24.60
2018,12,03,03,52,-24.60
2018,12,03,03,53,-24.70
2018,12,03,03,54,-24.80
2018,12,03,03,55,-24.80
2018,12,03,03,56,-24.80
2018,12,03,03,57,-24.80
2018,12,03,03,58,-24.90
2018,12,03,03,59,-24.90
2018,12,03,04,00,-24.90
2018,12,03,04,01,-24.90
2018,12,03,04,02,-24.90
2018,12,03,04,03,-24.80
2018,12,03,04,04,-24.90
2018,12,03,04,05,-24.80
2018,12,03,04,06,-24.80
2018,12,03,04,07,-24.80
2018,12,03,04,08,-24.80
2018,12,03,04,09,-24.70
2018,12,03,04,10,-24.70
2018,12,03,04,11,-24.70
2018,12,03,04,12,-24.60
2018,12,03,04,13,-24.60
2018,12,03,04,14,-24.50
2018,12,03,04,15,-24.50
2018,12,03,04,16,-24.50
2018,12,03,04,17,-24.50
2018,12,03,04,18,-24.40
2018,12,03,04,19,-24.40
2018,12,03,04,20,-24.40
2018,12,03,04,21,-24.40
2018,12,03,04,22,-24.40
2018,12,03,04,23,-24.30
2018,12,03,04,24,-24.30
2018,12,03,04,25,-24.20
2018,12,03,04,26,-24.20
2018,12,03,04,27,-24.20
2018,12,03,04,28,-24.20
2018,12,03,04,29,-24.10
2018,12,03,04,30,-24.10
2018,12,03,04,31,-24.10
2018,12,03,04,32,-24.00
2018,12,03,04,33,-24.00
2018,12,03,04,34,-24.00
2018,12,03,04,35,-24.00
2018,12,03,04,36,-24.00
2018,12,03,04,37,-24.00
2018,12,03,04,38,-24.00
2018,12,03,04,39,-24.00
2018,12,03,04,40,-24.00
2018,12,03,04,41,-24.00
2018,12,03,04,42,-24.00
2018,12,03,04,43,-24.00
2018,12,03,04,44,-24.00
2018,12,03,04,45,-24.00
2018,12,03,04,46,-24.00
2018,12,03,04,47,-24.00
2018,12,03,04,48,-24.00
2018,12,03,04,49,-24.00
2018,12,03,04,50,-24.10
2018,12,03,04,51,-24.10
2018,12,03,04,52,-24.10
2018,12,03,04,53,-24.10
2018,12,03,04,54,-24.20
2018,12,03,04,55,-24.20
2018,12,03,04,56,-24.10
2018,12,03,04,57,-24.10
2018,12,03,04,58,-24.10
2018,12,03,04,59,-24.10
2018,12,03,05,00,-24.10
2018,12,03,05,01,-24.10
2018,12,03,05,02,-24.00
2018,12,03,05,03,-24.00
2018,12,03,05,04,-24.00
2018,12,03,05,05,-23.90
2018,12,03,05,06,-23.90
2018,12,03,05,07,-23.80
2018,12,03,05,08,-23.70
2018,12,03,05,09,-23.70
2018,12,03,05,10,-23.60
2018,12,03,05,11,-23.60
2018,12,03,05,12,-23.60
2018,12,03,05,13,-23.50
2018,12,03,05,14,-23.50
2018,12,03,05,15,-23.50
2018,12,03,05,16,-23.50
2018,12,03,05,17,-23.40
2018,12,03,05,18,-23.40
2018,12,03,05,19,-23.40
2018,12,03,05,20,-23.40
2018,12,03,05,21,-23.30
2018,12,03,05,22,-23.30
2018,12,03,05,23,-23.30
2018,12,03,05,24,-23.30
2018,12,03,05,25,-23.30
2018,12,03,05,26,-23.30
2018,12,03,05,27,-23.30
2018,12,03,05,28,-23.30
2018,12,03,05,29,-23.30
2018,12,03,05,30,-23.30
2018,12,03,05,31,-23.30
2018,12,03,05,32,-23.30
2018,12,03,05,33,-23.30
2018,12,03,05,34,-23.30
2018,12,03,05,35,-23.30
2018,12,03,05,36,-23.20
2018,12,03,05,37,-23.20
2018,12,03,05,38,-23.20
2018,12,03,05,39,-23.20
2018,12,03,05,40,-23.20
2018,12,03,05,41,-23.20
2018,12,03,05,42,-23.20
2018,12,03,05,43,-23.10
2018,12,03,05,44,-23.10
2018,12,03,05,45,-23.10
2018,12,03,05,46,-23.10
2018,12,03,05,47,-23.10
2018,12,03,05,48,-23.10
2018,12,03,05,49,-23.00
2018,12,03,05,50,-23.00
2018,12,03,05,51,-23.00
2018,12,03,05,52,-23.00
2018,12,03,05,53,-23.00
2018,12,03,05,54,-23.00
2018,12,03,05,55,-22.90
2018,12,03,05,56,-22.90
2018,12,03,05,57,-22.80
2018,12,03,05,58,-22.80
2018,12,03,05,59,-22.80
2018,12,03,06,00,-22.80
2018,12,03,06,01,-22.80
2018,12,03,06,02,-22.80
2018,12,03,06,03,-22.80
2018,12,03,06,04,-22.70
2018,12,03,06,05,-22.70
2018,12,03,06,06,-22.70
2018,12,03,06,07,-22.70
2018,12,03,06,08,-22.60
2018,12,03,06,09,-22.60
2018,12,03,06,10,-22.60
2018,12,03,06,11,-22.50
2018,12,03,06,12,-22.50
2018,12,03,06,13,-22.40
2018,12,03,06,14,-22.40
2018,12,03,06,15,-22.40
2018,12,03,06,16,-22.40
2018,12,03,06,17,-22.40
2018,12,03,06,18,-22.30
2018,12,03,06,19,-22.30
2018,12,03,06,20,-22.30
2018,12,03,06,21,-22.20
2018,12,03,06,22,-22.20
2018,12,03,06,23,-22.20
2018,12,03,06,24,-22.10
2018,12,03,06,25,-22.00
2018,12,03,06,26,-21.90
2018,12,03,06,27,-21.70
2018,12,03,06,28,-21.70
2018,12,03,06,29,-21.50
2018,12,03,06,30,-21.50
2018,12,03,06,31,-21.50
2018,12,03,06,32,-21.50
2018,12,03,06,33,-21.50
2018,12,03,06,34,-21.50
2018,12,03,06,35,-21.50
2018,12,03,06,36,-21.50
2018,12,03,06,37,-21.50
2018,12,03,06,38,-21.50
2018,12,03,06,39,-21.40
2018,12,03,06,40,-21.40
2018,12,03,06,41,-21.30
2018,12,03,06,42,-21.30
2018,12,03,06,43,-21.20
2018,12,03,06,44,-21.20
2018,12,03,06,45,-21.10
2018,12,03,06,46,-21.10
2018,12,03,06,47,-21.00
2018,12,03,06,48,-21.00
2018,12,03,06,49,-21.00
2018,12,03,06,50,-20.90
2018,12,03,06,51,-20.90
2018,12,03,06,52,-20.80
2018,12,03,06,53,-20.80
2018,12,03,06,54,-20.80
2018,12,03,06,55,-20.70
2018,12,03,06,56,-20.70
2018,12,03,06,57,-20.60
2018,12,03,06,58,-20.60
2018,12,03,06,59,-20.70
2018,12,03,07,00,-20.70
2018,12,03,07,01,-20.80
2018,12,03,07,02,-20.80
2018,12,03,07,03,-20.80
2018,12,03,07,04,-20.80
2018,12,03,07,05,-20.90
2018,12,03,07,06,-20.90
2018,12,03,07,07,-20.90
2018,12,03,07,08,-20.80
2018,12,03,07,09,-20.80
2018,12,03,07,10,-20.80
2018,12,03,07,11,-20.80
2018,12,03,07,12,-20.80
2018,12,03,07,13,-20.80
2018,12,03,07,14,-20.80
2018,12,03,07,15,-20.80
2018,12,03,07,16,-20.80
2018,12,03,07,17,-20.80
2018,12,03,07,18,-20.80
2018,12,03,07,19,-20.80
2018,12,03,07,20,-20.80
2018,12,03,07,21,-20.80
2018,12,03,07,22,-20.80
2018,12,03,07,23,-20.80
2018,12,03,07,24,-20.70
2018,12,03,07,25,-20.70
2018,12,03,07,26,-20.70
2018,12,03,07,27,-20.70
2018,12,03,07,28,-20.60
2018,12,03,07,29,-20.60
2018,12,03,07,30,-20.60
2018,12,03,07,31,-20.60
2018,12,03,07,32,-20.60
2018,12,03,07,33,-20.60
2018,12,03,07,34,-20.50
2018,12,03,07,35,-20.50
2018,12,03,07,36,-20.50
2018,12,03,07,37,-20.40
2018,12,03,07,38,-20.40
2018,12,03,07,39,-20.40
2018,12,03,07,40,-20.40
2018,12,03,07,41,-20.30
2018,12,03,07,42,-20.30
2018,12,03,07,43,-20.20
2018,12,03,07,44,-20.10
2018,12,03,07,45,-20.10
2018,12,03,07,46,-20.00
2018,12,03,07,47,-20.00
2018,12,03,07,48,-20.00
2018,12,03,07,49,-20.00
2018,12,03,07,50,-20.00
2018,12,03,07,51,-20.00
2018,12,03,07,52,-20.00
2018,12,03,07,53,-19.90
2018,12,03,07,54,-19.90
2018,12,03,07,55,-19.90
2018,12,03,07,56,-19.90
2018,12,03,07,57,-19.90
2018,12,03,07,58,-19.90
2018,12,03,07,59,-19.90
2018,12,03,08,00,-19.80
2018,12,03,08,01,-19.80
2018,12,03,08,02,-19.80
2018,12,03,08,03,-19.80
2018,12,03,08,04,-19.80
2018,12,03,08,05,-19.70
2018,12,03,08,06,-19.70
2018,12,03,08,07,-19.70
2018,12,03,08,08,-19.70
2018,12,03,08,09,-19.70
2018,12,03,08,10,-19.70
2018,12,03,08,11,-19.60
2018,12,03,08,12,-19.60
2018,12,03,08,13,-19.60
2018,12,03,08,14,-19.60
2018,12,03,08,15,-19.60
2018,12,03,08,16,-19.60
2018,12,03,08,17,-19.60
2018,12,03,08,18,-19.60
2018,12,03,08,19,-19.60
2018,12,03,08,20,-19.60
2018,12,03,08,21,-19.60
2018,12,03,08,22,-19.50
2018,12,03,08,23,-19.50
2018,12,03,08,24,-19.50
2018,12,03,08,25,-19.50
2018,12,03,08,26,-19.50
2018,12,03,08,27,-19.50
2018,12,03,08,28,-19.40
2018,12,03,08,29,-19.40
2018,12,03,08,30,-19.40
2018,12,03,08,31,-19.40
2018,12,03,08,32,-19.40
2018,12,03,08,33,-19.50
2018,12,03,08,34,-19.50
2018,12,03,08,35,-19.50
2018,12,03,08,36,-19.60
2018,12,03,08,37,-19.60
2018,12,03,08,38,-19.60
2018,12,03,08,39,-19.60
2018,12,03,08,40,-19.70
2018,12,03,08,41,-19.70
2018,12,03,08,42,-19.70
2018,12,03,08,43,-19.70
2018,12,03,08,44,-19.80
2018,12,03,08,45,-19.80
2018,12,03,08,46,-19.80
2018,12,03,08,47,-19.80
2018,12,03,08,48,-19.80
2018,12,03,08,49,-19.80
2018,12,03,08,50,-19.80
2018,12,03,08,51,-19.80
2018,12,03,08,52,-19.80
2018,12,03,08,53,-19.80
2018,12,03,08,54,-19.80
2018,12,03,08,55,-19.80
2018,12,03,08,56,-19.70
2018,12,03,08,57,-19.70
2018,12,03,08,58,-19.70
2018,12,03,08,59,-19.70
2018,12,03,09,00,-19.70
2018,12,03,09,01,-19.70
2018,12,03,09,02,-19.70
2018,12,03,09,03,-19.70
2018,12,03,09,04,-19.60
2018,12,03,09,05,-19.60
2018,12,03,09,06,-19.60
2018,12,03,09,07,-19.60
2018,12,03,09,08,-19.60
2018,12,03,09,09,-19.60
2018,12,03,09,10,-19.50
2018,12,03,09,11,-19.50
2018,12,03,09,12,-19.50
2018,12,03,09,13,-19.50
2018,12,03,09,14,-19.50
2018,12,03,09,15,-19.50
2018,12,03,09,16,-19.50
2018,12,03,09,17,-19.40
2018,12,03,09,18,-19.40
2018,12,03,09,19,-19.40
2018,12,03,09,20,-19.40
2018,12,03,09,21,-19.40
2018,12,03,09,22,-19.40
2018,12,03,09,23,-19.30
2018,12,03,09,24,-19.30
2018,12,03,09,25,-19.30
2018,12,03,09,26,-19.30
2018,12,03,09,27,-19.20
2018,12,03,09,28,-19.20
2018,12,03,09,29,-19.20
2018,12,03,09,30,-19.20
2018,12,03,09,31,-19.20
2018,12,03,09,32,-19.10
2018,12,03,09,33,-19.10
2018,12,03,09,34,-19.10
2018,12,03,09,35,-19.10
2018,12,03,09,36,-19.10
2018,12,03,09,37,-19.10
2018,12,03,09,38,-19.20
2018,12,03,09,39,-19.10
2018,12,03,09,40,-19.10
2018,12,03,09,41,-19.20
2018,12,03,09,42,-19.10
2018,12,03,09,43,-19.10
2018,12,03,09,44,-19.10
2018,12,03,09,45,-19.00
2018,12,03,09,46,-19.00
2018,12,03,09,47,-19.00
2018,12,03,09,48,-18.90
2018,12,03,09,49,-18.80
2018,12,03,09,50,-18.80
2018,12,03,09,51,-18.80
2018,12,03,09,52,-18.70
2018,12,03,09,53,-18.60
2018,12,03,09,54,-18.60
2018,12,03,09,55,-18.50
2018,12,03,09,56,-18.50
2018,12,03,09,57,-18.50
2018,12,03,09,58,-18.40
2018,12,03,09,59,-18.30
2018,12,03,10,00,-18.30
2018,12,03,10,01,-18.20
2018,12,03,10,02,-18.20
2018,12,03,10,03,-18.20
2018,12,03,10,04,-18.20
2018,12,03,10,05,-18.10
2018,12,03,10,06,-18.10
2018,12,03,10,07,-18.00
2018,12,03,10,08,-18.00
2018,12,03,10,09,-18.00
2018,12,03,10,10,-18.00
2018,12,03,10,11,-17.90
2018,12,03,10,12,-17.90
2018,12,03,10,14,-17.80
2018,12,03,10,15,-17.80
2018,12,03,10,16,-17.80
2018,12,03,10,17,-17.80
2018,12,03,10,18,-17.80
2018,12,03,10,19,-17.70
2018,12,03,10,20,-17.70
2018,12,03,10,21,-17.70
2018,12,03,10,22,-17.70
2018,12,03,10,23,-17.70
2018,12,03,10,24,-17.70
2018,12,03,10,25,-17.70
2018,12,03,10,26,-17.70
2018,12,03,10,27,-17.70
2018,12,03,10,28,-17.70
2018,12,03,10,29,-17.70
2018,12,03,10,30,-17.70
2018,12,03,10,31,-17.70
2018,12,03,10,32,-17.70
2018,12,03,10,33,-17.70
2018,12,03,10,34,-17.70
2018,12,03,10,35,-17.70
2018,12,03,10,36,-17.70
2018,12,03,10,37,-17.70
2018,12,03,10,38,-17.70
2018,12,03,10,39,-17.70
2018,12,03,10,40,-17.70
2018,12,03,10,41,-17.70
2018,12,03,10,42,-17.70
2018,12,03,10,43,-17.70
2018,12,03,10,44,-17.70
2018,12,03,10,45,-17.70
2018,12,03,10,46,-17.70
2018,12,03,10,47,-17.80
2018,12,03,10,48,-17.80
2018,12,03,10,49,-17.80
2018,12,03,10,50,-17.80
2018,12,03,10,51,-17.80
2018,12,03,10,52,-17.80
2018,12,03,10,53,-17.80
2018,12,03,10,54,-17.80
2018,12,03,10,55,-17.80
2018,12,03,10,56,-17.70
2018,12,03,10,57,-17.70
2018,12,03,10,58,-17.70
2018,12,03,10,59,-17.70
2018,12,03,11,00,-17.70
2018,12,03,11,01,-17.70
2018,12,03,11,02,-17.70
2018,12,03,11,03,-17.70
2018,12,03,11,04,-17.70
2018,12,03,11,05,-17.60
2018,12,03,11,06,-17.60
2018,12,03,11,07,-17.60
2018,12,03,11,08,-17.60
2018,12,03,11,09,-17.60
2018,12,03,11,10,-17.50
2018,12,03,11,11,-17.50
2018,12,03,11,12,-17.50
2018,12,03,11,13,-17.50
2018,12,03,11,14,-17.50
2018,12,03,11,15,-17.50
2018,12,03,11,16,-17.50
2018,12,03,11,17,-17.40
2018,12,03,11,18,-17.40
2018,12,03,11,19,-17.40
2018,12,03,11,20,-17.40
2018,12,03,11,21,-17.40
2018,12,03,11,22,-17.40
2018,12,03,11,23,-17.40
2018,12,03,11,24,-17.40
2018,12,03,11,25,-17.40
2018,12,03,11,26,-17.30
2018,12,03,11,27,-17.30
2018,12,03,11,28,-17.30
2018,12,03,11,29,-17.30
2018,12,03,11,30,-17.30
2018,12,03,11,31,-17.30
2018,12,03,11,32,-17.30
2018,12,03,11,33,-17.30
2018,12,03,11,34,-17.30
2018,12,03,11,35,-17.30
2018,12,03,11,36,-17.30
2018,12,03,11,37,-17.30
2018,12,03,11,38,-17.30
2018,12,03,11,39,-17.30
2018,12,03,11,40,-17.30
2018,12,03,11,41,-17.20
2018,12,03,11,42,-17.20
2018,12,03,11,43,-17.20
2018,12,03,11,44,-17.20
2018,12,03,11,45,-17.20
2018,12,03,11,46,-17.20
2018,12,03,11,47,-17.20
2018,12,03,11,48,-17.20
2018,12,03,11,49,-17.10
2018,12,03,11,50,-17.10
2018,12,03,11,51,-17.10
2018,12,03,11,52,-17.10
2018,12,03,11,53,-17.10
2018,12,03,11,54,-17.10
2018,12,03,11,55,-17.10
2018,12,03,11,56,-17.10
2018,12,03,11,57,-17.10
2018,12,03,11,58,-17.10
2018,12,03,11,59,-17.10
2018,12,03,12,00,-17.10
2018,12,03,12,01,-17.00
2018,12,03,12,02,-17.00
2018,12,03,12,03,-17.00
2018,12,03,12,04,-17.00
2018,12,03,12,05,-17.00
2018,12,03,12,06,-17.00
2018,12,03,12,07,-17.00
2018,12,03,12,08,-16.90
2018,12,03,12,09,-16.90
2018,12,03,12,10,-16.90
2018,12,03,12,11,-16.90
2018,12,03,12,12,-16.90
2018,12,03,12,13,-16.90
2018,12,03,12,14,-16.90
2018,12,03,12,15,-16.80
2018,12,03,12,16,-16.80
2018,12,03,12,17,-16.80
2018,12,03,12,18,-16.80
2018,12,03,12,19,-16.80
2018,12,03,12,20,-16.80
2018,12,03,12,21,-16.80
2018,12,03,12,22,-16.80
2018,12,03,12,23,-16.80
2018,12,03,12,24,-16.80
2018,12,03,12,25,-16.80
2018,12,03,12,26,-16.80
2018,12,03,12,27,-16.80
2018,12,03,12,28,-16.80
2018,12,03,12,29,-16.80
2018,12,03,12,30,-16.70
2018,12,03,12,31,-16.70
2018,12,03,12,32,-16.70
2018,12,03,12,33,-16.70
2018,12,03,12,34,-16.60
2018,12,03,12,35,-16.60
2018,12,03,12,36,-16.50
2018,12,03,12,37,-16.50
2018,12,03,12,38,-16.50
2018,12,03,12,39,-16.40
2018,12,03,12,40,-16.40
2018,12,03,12,41,-16.40
2018,12,03,12,42,-16.40
2018,12,03,12,43,-16.30
2018,12,03,12,44,-16.30
2018,12,03,12,45,-16.30
2018,12,03,12,46,-16.30
2018,12,03,12,47,-16.30
2018,12,03,12,48,-16.30
2018,12,03,12,49,-16.20
2018,12,03,12,50,-16.20
2018,12,03,12,51,-16.20
2018,12,03,12,52,-16.20
2018,12,03,12,53,-16.20
2018,12,03,12,54,-16.20
2018,12,03,12,55,-16.20
2018,12,03,12,56,-16.10
2018,12,03,12,57,-16.10
2018,12,03,12,58,-16.10
2018,12,03,12,59,-16.10
2018,12,03,13,00,-16.10
2018,12,03,13,01,-16.20
2018,12,03,13,02,-16.20
2018,12,03,13,03,-16.20
2018,12,03,13,04,-16.20
2018,12,03,13,05,-16.20
2018,12,03,13,06,-16.20
2018,12,03,13,07,-16.20
2018,12,03,13,08,-16.20
2018,12,03,13,09,-16.20
2018,12,03,13,10,-16.20
2018,12,03,13,11,-16.20
2018,12,03,13,12,-16.20
2018,12,03,13,13,-16.20
2018,12,03,13,14,-16.20
2018,12,03,13,15,-16.20
2018,12,03,13,16,-16.20
2018,12,03,13,17,-16.20
2018,12,03,13,18,-16.20
2018,12,03,13,19,-16.20
2018,12,03,13,20,-16.20
2018,12,03,13,21,-16.20
2018,12,03,13,22,-16.20
2018,12,03,13,23,-16.20
2018,12,03,13,24,-16.20
2018,12,03,13,25,-16.20
2018,12,03,13,26,-16.20
2018,12,03,13,27,-16.30
2018,12,03,13,28,-16.20
2018,12,03,13,29,-16.30
2018,12,03,13,30,-16.30
2018,12,03,13,31,-16.30
2018,12,03,13,32,-16.30
2018,12,03,13,33,-16.30
2018,12,03,13,34,-16.30
2018,12,03,13,35,-16.30
2018,12,03,13,36,-16.30
2018,12,03,13,37,-16.30
2018,12,03,13,38,-16.30
2018,12,03,13,39,-16.30
2018,12,03,13,40,-16.30
2018,12,03,13,41,-16.30
2018,12,03,13,42,-16.30
2018,12,03,13,43,-16.30
2018,12,03,13,44,-16.30
2018,12,03,13,45,-16.30
2018,12,03,13,46,-16.30
2018,12,03,13,47,-16.30
2018,12,03,13,48,-16.30
2018,12,03,13,49,-16.30
2018,12,03,13,50,-16.30
2018,12,03,13,51,-16.20
2018,12,03,13,52,-16.20
2018,12,03,13,53,-16.20
2018,12,03,13,54,-16.20
2018,12,03,13,55,-16.20
2018,12,03,13,56,-16.20
2018,12,03,13,57,-16.20
2018,12,03,13,58,-16.20
2018,12,03,13,59,-16.20
2018,12,03,14,00,-16.20
2018,12,03,14,01,-16.20
2018,12,03,14,02,-16.10
2018,12,03,14,03,-16.10
2018,12,03,14,04,-16.10
2018,12,03,14,05,-16.10
2018,12,03,14,06,-16.10
2018,12,03,14,07,-16.10
2018,12,03,14,08,-16.10
2018,12,03,14,09,-16.10
2018,12,03,14,10,-16.00
2018,12,03,14,11,-16.00
2018,12,03,14,12,-16.00
2018,12,03,14,13,-16.00
2018,12,03,14,14,-15.90
2018,12,03,14,15,-15.90
2018,12,03,14,16,-15.90
2018,12,03,14,17,-15.90
2018,12,03,14,18,-15.90
2018,12,03,14,19,-15.90
2018,12,03,14,20,-15.90
2018,12,03,14,21,-15.90
2018,12,03,14,22,-15.90
2018,12,03,14,23,-15.90
2018,12,03,14,24,-15.90
2018,12,03,14,25,-15.90
2018,12,03,14,26,-15.90
2018,12,03,14,27,-15.80
2018,12,03,14,28,-15.80
2018,12,03,14,29,-15.80
2018,12,03,14,30,-15.80
2018,12,03,14,31,-15.80
2018,12,03,14,32,-15.80
2018,12,03,14,33,-15.80
2018,12,03,14,34,-15.80
2018,12,03,14,35,-15.80
2018,12,03,14,36,-15.80
2018,12,03,14,37,-15.80
2018,12,03,14,38,-15.80
2018,12,03,14,39,-15.80
2018,12,03,14,40,-15.80
2018,12,03,14,41,-15.80
2018,12,03,14,42,-15.80
2018,12,03,14,43,-15.80
2018,12,03,14,44,-15.80
2018,12,03,14,45,-15.80
2018,12,03,14,46,-15.80
2018,12,03,14,47,-15.80
2018,12,03,14,48,-15.80
2018,12,03,14,49,-15.80
2018,12,03,14,50,-15.80
2018,12,03,14,51,-15.80
2018,12,03,14,52,-15.80
2018,12,03,14,53,-15.80
2018,12,03,14,54,-15.80
2018,12,03,14,55,-15.80
2018,12,03,14,56,-15.80
2018,12,03,14,57,-15.80
2018,12,03,14,58,-15.90
2018,12,03,14,59,-15.90
2018,12,03,15,00,-15.90
2018,12,03,15,01,-15.90
2018,12,03,15,02,-15.90
2018,12,03,15,03,-15.90
2018,12,03,15,04,-15.90
2018,12,03,15,05,-15.90
2018,12,03,15,06,-15.90
2018,12,03,15,07,-15.90
2018,12,03,15,08,-15.90
2018,12,03,15,09,-15.90
2018,12,03,15,10,-15.90
2018,12,03,15,11,-15.90
2018,12,03,15,12,-15.90
2018,12,03,15,13,-15.90
2018,12,03,15,14,-15.90
2018,12,03,15,15,-15.90
2018,12,03,15,16,-15.90
2018,12,03,15,17,-15.90
2018,12,03,15,18,-15.90
2018,12,03,15,19,-15.90
2018,12,03,15,20,-15.80
2018,12,03,15,21,-15.80
2018,12,03,15,22,-15.80
2018,12,03,15,23,-15.80
2018,12,03,15,24,-15.80
2018,12,03,15,25,-15.80
2018,12,03,15,26,-15.80
2018,12,03,15,27,-15.80
2018,12,03,15,28,-15.80
2018,12,03,15,29,-15.80
2018,12,03,15,30,-15.80
2018,12,03,15,31,-15.80
2018,12,03,15,32,-15.80
2018,12,03,15,33,-15.80
2018,12,03,15,34,-15.80
2018,12,03,15,35,-15.80
2018,12,03,15,36,-15.80
2018,12,03,15,37,-15.70
2018,12,03,15,38,-15.70
2018,12,03,15,39,-15.70
2018,12,03,15,40,-15.70
2018,12,03,15,41,-15.70
2018,12,03,15,42,-15.70
2018,12,03,15,43,-15.70
2018,12,03,15,44,-15.70
2018,12,03,15,45,-15.70
2018,12,03,15,46,-15.70
2018,12,03,15,47,-15.70
2018,12,03,15,48,-15.70
2018,12,03,15,49,-15.70
2018,12,03,15,50,-15.70
2018,12,03,15,51,-15.70
2018,12,03,15,52,-15.70
2018,12,03,15,53,-15.70
2018,12,03,15,54,-15.70
2018,12,03,15,55,-15.70
2018,12,03,15,56,-15.70
2018,12,03,15,57,-15.70
2018,12,03,15,58,-15.70
2018,12,03,15,59,-15.70
2018,12,03,16,00,-15.70
2018,12,03,16,01,-15.70
2018,12,03,16,02,-15.70
2018,12,03,16,03,-15.60
2018,12,03,16,04,-15.60
2018,12,03,16,05,-15.60
2018,12,03,16,06,-15.60
2018,12,03,16,07,-15.60
2018,12,03,16,08,-15.60
2018,12,03,16,09,-15.60
2018,12,03,16,10,-15.60
2018,12,03,16,11,-15.60
2018,12,03,16,12,-15.60
2018,12,03,16,13,-15.60
2018,12,03,16,14,-15.60
2018,12,03,16,15,-15.60
2018,12,03,16,16,-15.60
2018,12,03,16,17,-15.60
2018,12,03,16,18,-15.60
2018,12,03,16,19,-15.50
2018,12,03,16,20,-15.50
2018,12,03,16,21,-15.50
2018,12,03,16,22,-15.50
2018,12,03,16,23,-15.50
2018,12,03,16,24,-15.50
2018,12,03,16,25,-15.40
2018,12,03,16,26,-15.40
2018,12,03,16,27,-15.40
2018,12,03,16,28,-15.40
2018,12,03,16,29,-15.40
2018,12,03,16,30,-15.40
2018,12,03,16,31,-15.40
2018,12,03,16,32,-15.30
2018,12,03,16,33,-15.30
2018,12,03,16,34,-15.30
2018,12,03,16,35,-15.30
2018,12,03,16,36,-15.30
2018,12,03,16,37,-15.30